Weather reports worldwide

Advertisment
Leutkirch-Herlazhofen, Germany (10945): temperature & dewpoint: 18.01.2020 03:00:00 - 24.01.2020 03:00:00 (CET)Leutkirch-Herlazhofen, Germany (10945): temperature 5cm & temperature -5cm: 18.01.2020 03:00:00 - 24.01.2020 03:00:00 (CET)Leutkirch-Herlazhofen, Germany (10945): temperature -20cm & temperature -100cm: 18.01.2020 03:00:00 - 24.01.2020 03:00:00 (CET)Leutkirch-Herlazhofen, Germany (10945): wind speed & gusts: 18.01.2020 03:00:00 - 24.01.2020 03:00:00 (CET)Leutkirch-Herlazhofen, Germany (10945): wind direction: 18.01.2020 03:00:00 - 24.01.2020 03:00:00 (CET)Leutkirch-Herlazhofen, Germany (10945): reduced air pressure: 18.01.2020 03:00:00 - 24.01.2020 03:00:00 (CET)Leutkirch-Herlazhofen, Germany (10945): visibility: 18.01.2020 03:00:00 - 24.01.2020 03:00:00 (CET)Leutkirch-Herlazhofen, Germany (10945): sunshine duration: 18.01.2020 03:00:00 - 24.01.2020 03:00:00 (CET)Leutkirch-Herlazhofen, Germany (10945): precipitation: 18.01.2020 03:00:00 - 24.01.2020 03:00:00 (CET)
Date & Time tt [°C] td [°C] tt 5cm [°C] tt -5cm [°C] tt -20cm [°C] tt -100cm [°C] ff [km/h] ff [kn] fx [km/h] fx [kn] dd ppp [hPa] vv [km] sd [min] rr [mm]
24.01.2020 03:00:00 - - - - - - - - - - - - - - -
24.01.2020 02:00:00 -3,2 -3,6 -3,0 -0,3 0,8 4,2 11 6 21 12 SSW 1029,4 2,7 0 0,0
24.01.2020 01:00:00 -3,1 -3,7 -2,9 -0,2 0,8 4,2 15 8 22 12 SSW 1029,6 1,7 0 0,0
24.01.2020 00:00:00 -3,3 -3,9 -3,0 -0,2 0,8 4,2 18 10 24 13 SSW 1030,1 1,6 0 0,0
23.01.2020 23:00:00 -3,2 -3,8 -2,9 -0,2 0,8 4,2 13 7 17 9 SW 1029,6 1,4 0 0,0
23.01.2020 22:00:00 -3,2 -3,8 -2,8 -0,1 0,8 4,2 11 6 15 8 SW 1029,4 2,8 0 0,0
23.01.2020 21:00:00 -3,5 -4,3 -3,1 -0,2 0,8 4,2 8 5 12 7 SSW 1029,5 4,0 0 0,0
23.01.2020 20:00:00 -3,5 -4,6 -3,2 -0,2 0,8 4,2 5 3 9 5 S 1029,4 6 0 0,0
23.01.2020 19:00:00 -3,9 -5,0 -5,6 -0,2 0,8 4,2 7 4 13 7 NE 1029,4 7 0 0,0
23.01.2020 18:00:00 -2,9 -4,4 -3,1 -0,2 0,8 4,2 9 5 25 13 ENE 1029,0 10 0 0,0
23.01.2020 17:00:00 -2,3 -3,8 -2,3 -0,2 0,8 4,2 11 6 20 11 NE 1028,3 9 0 0,0
23.01.2020 16:00:00 -2,3 -3,8 -1,9 -0,2 0,8 4,2 12 6 22 12 NNE 1029,1 9 7 0,0
23.01.2020 15:00:00 -1,9 -3,7 -0,6 -0,3 0,8 4,2 13 7 19 10 NNE 1029,6 11 17 0,0
23.01.2020 14:00:00 -1,0 -3,2 2,0 -0,3 0,8 4,2 13 7 20 11 NE 1030,1 17 60 0,0
23.01.2020 13:00:00 -2,6 -4,3 -0,1 -0,4 0,8 4,2 10 6 23 12 ENE 1031,6 19 59 0,0
23.01.2020 12:00:00 -3,1 -4,4 -0,9 -0,5 0,8 4,2 16 9 28 15 NE 1032,5 13 37 0,0
23.01.2020 11:00:00 -4,1 -5,1 -2,7 -0,6 0,8 4,2 15 8 26 14 NE 1033,4 10 2 0,0
23.01.2020 10:00:00 -4,8 -5,9 -4,1 -0,7 0,8 4,2 16 9 26 14 ENE 1033,8 10 0 0,0
23.01.2020 09:00:00 -5,6 -6,8 -5,5 -0,7 0,8 4,2 18 10 27 14 NE 1034,1 9 0 0,0
23.01.2020 08:00:00 -6,0 -7,1 -6,5 -0,5 0,9 4,2 17 9 23 12 NE 1034,4 13 0 0,0
23.01.2020 07:00:00 -5,6 -6,5 -5,5 -0,4 0,9 4,2 13 7 21 12 NE 1034,4 8 0 0,0
23.01.2020 06:00:00 -5,1 -6,0 -5,1 -0,2 0,9 4,2 14 8 20 11 NE 1034,7 9 0 0,0
23.01.2020 05:00:00 -4,7 -5,5 -4,5 -0,1 0,9 4,2 9 5 18 10 NE 1035,2 6 0 0,0
23.01.2020 04:00:00 -4,7 -5,5 -4,6 -0,1 0,9 4,2 8 4 16 9 NNE 1035,8 6 0 0,0
23.01.2020 03:00:00 -4,8 -5,5 -4,8 -0,1 0,9 4,3 10 5 18 10 NE 1036,6 3,2 0 0,0
23.01.2020 02:00:00 -4,8 -5,7 -4,5 -0,1 0,9 4,3 11 6 21 11 NE 1037,1 7 0 0,0
23.01.2020 01:00:00 -4,9 -5,6 -4,4 -0,1 0,9 4,3 13 7 19 11 NNE 1037,7 0,3 0 0,0
23.01.2020 00:00:00 -4,0 -4,5 -3,4 -0,1 0,9 4,3 9 5 14 8 NNE 1037,4 0,4 0 0,0
22.01.2020 23:00:00 -4,3 -4,5 -3,8 -0,1 0,9 4,3 4 2 8 5 E 1036,9 0,1 0 0,0
22.01.2020 22:00:00 -4,1 -4,5 -3,5 -0,1 0,9 4,3 4 2 6 4 NE 1037,0 0,1 0 0,0
22.01.2020 21:00:00 -3,6 -3,9 -3,1 -0,1 0,9 4,3 4 2 11 6 ESE 1036,6 0,2 0 0,0
22.01.2020 20:00:00 -3,3 -3,6 -2,8 -0,1 0,9 4,3 6 4 16 9 ENE 1036,7 0,2 0 0,0
22.01.2020 19:00:00 -3,5 -3,9 -3,0 -0,1 0,9 4,3 9 5 13 7 NE 1036,3 0,2 0 0,0
22.01.2020 18:00:00 -3,4 -3,7 -3,1 -0,1 0,9 4,3 8 5 15 8 NE 1035,8 0,2 0 0,0
22.01.2020 17:00:00 -2,0 -3,4 -2,6 -0,2 0,9 4,3 12 6 20 11 NE 1035,0 5 53 0,0
22.01.2020 16:00:00 1,7 -1,8 2,3 -0,2 0,9 4,3 9 5 11 6 NW 1033,5 17 60 0,0
22.01.2020 15:00:00 2,4 -2,1 4,5 -0,2 0,9 4,3 3 2 6 3 WNW 1033,4 12 60 0,0
22.01.2020 14:00:00 -0,4 -3,6 1,5 -0,3 0,9 4,3 4 2 10 5 SW 1034,9 11 60 0,0
22.01.2020 13:00:00 -2,8 -4,1 -0,8 -0,3 0,9 4,3 10 5 14 7 NW 1036,4 3,3 60 0,0
22.01.2020 12:00:00 -3,1 -4,8 -0,6 -0,4 0,9 4,3 7 4 10 6 NW 1036,8 8 60 0,0
22.01.2020 11:00:00 -4,5 -6,0 -3,2 -0,5 1,0 4,3 4 2 10 5 NE 1038,0 9 50 0,0
22.01.2020 10:00:00 -5,8 -7,0 -3,5 -0,7 1,0 4,3 6 4 11 6 NNE 1038,7 3,7 46 0,0
22.01.2020 09:00:00 -7,1 -8,2 -6,6 -0,9 1,0 4,3 2 1 6 3 NW 1038,5 0,3 7 0,0
22.01.2020 08:00:00 -8,4 -9,8 -10,4 -0,7 1,0 4,3 4 2 8 5 NNE 1038,5 13 0 0,0
22.01.2020 07:00:00 -7,4 -8,1 -7,7 -0,5 1,0 4,3 5 3 6 3 SSW 1037,9 0,2 0 0,0
22.01.2020 06:00:00 -8,1 -9,1 -9,5 -0,2 1,0 4,3 4 2 10 5 NNE 1038,5 10 0 0,0
22.01.2020 05:00:00 -7,0 -8,0 -6,9 -0,1 1,0 4,3 9 5 11 6 S 1038,3 0,7 0 0,0
22.01.2020 04:00:00 -5,9 -6,7 -5,4 0,0 1,1 4,3 3 1 5 3 WNW 1038,7 0,1 0 0,0
22.01.2020 03:00:00 -6,4 -7,0 -5,9 0,0 1,1 4,3 3 2 6 3 E 1039,3 0,1 0 0,0
22.01.2020 02:00:00 -5,8 -6,7 -5,4 0,0 1,1 4,3 0 0 7 4 N 1039,3 0,2 0 0,0
22.01.2020 01:00:00 -5,4 -5,8 -5,2 0,0 1,1 4,3 4 2 8 5 ESE 1039,7 0,3 0 0,0
22.01.2020 00:00:00 -5,0 -5,7 -4,5 0,0 1,1 4,3 4 2 9 5 NNW 1039,8 0,3 0 0,0
21.01.2020 23:00:00 -5,0 -5,6 -4,6 0,0 1,1 4,3 6 3 13 7 ENE 1039,9 0,2 0 0,0
21.01.2020 22:00:00 -4,9 -5,5 -4,4 0,0 1,1 4,3 8 4 14 7 NNE 1040,0 0,8 0 0,0
21.01.2020 21:00:00 -4,7 -5,5 -4,5 0,0 1,1 4,3 9 5 15 8 NE 1040,2 3,2 0 0,0
21.01.2020 20:00:00 -4,5 -5,7 -5,8 -0,1 1,1 4,3 5 3 15 8 N 1040,5 6 0 0,0
21.01.2020 19:00:00 -3,9 -5,3 -5,5 -0,1 1,1 4,3 6 3 13 7 NE 1040,4 8 0 0,0
21.01.2020 18:00:00 -2,7 -4,8 -4,5 -0,1 1,1 4,3 8 4 12 6 NE 1040,2 10 0 0,0
21.01.2020 17:00:00 -1,3 -4,3 -2,7 -0,1 1,1 4,3 8 5 18 10 NNE 1039,8 17 38 0,0
21.01.2020 16:00:00 0,0 -3,9 0,1 -0,1 1,1 4,4 7 4 15 8 NNE 1039,7 21 60 0,0
21.01.2020 15:00:00 0,8 -3,9 2,5 -0,1 1,1 4,4 10 6 15 8 NE 1040,2 23 60 0,0
21.01.2020 14:00:00 0,7 -4,5 2,2 -0,2 1,1 4,4 10 5 14 8 ENE 1040,6 32 60 0,0
21.01.2020 13:00:00 -0,2 -5,3 2,1 -0,2 1,2 4,4 8 4 13 7 ENE 1041,6 37 60 0,0
21.01.2020 12:00:00 -1,4 -5,5 1,2 -0,2 1,2 4,4 9 5 13 7 NE 1042,7 30 60 0,0
21.01.2020 11:00:00 -3,1 -6,5 -1,6 -0,3 1,2 4,4 10 5 12 6 NE 1043,6 28 60 0,0
21.01.2020 10:00:00 -4,4 -7,3 -3,2 -0,4 1,2 4,4 5 3 7 4 NE 1044,1 17 60 0,0
21.01.2020 09:00:00 -5,8 -8,0 -5,8 -0,4 1,2 4,4 5 3 8 5 E 1044,3 11 32 0,0
21.01.2020 08:00:00 -6,1 -7,7 -8,1 -0,3 1,3 4,4 7 4 18 10 NNE 1044,3 12 0 0,0
21.01.2020 07:00:00 -5,5 -6,2 -5,5 -0,2 1,3 4,4 12 6 17 9 ENE 1044,1 2,3 0 0,0
21.01.2020 06:00:00 -5,0 -6,0 -5,0 -0,1 1,3 4,4 11 6 23 12 ENE 1044,0 4,7 0 0,0
21.01.2020 05:00:00 -4,9 -6,4 -6,3 -0,1 1,3 4,4 10 5 16 9 NE 1044,1 8 0 0,0
21.01.2020 04:00:00 -4,8 -6,6 -6,3 0,0 1,3 4,4 10 6 14 8 NE 1043,8 10 0 0,0
21.01.2020 03:00:00 -4,4 -6,1 -6,1 0,1 1,4 4,4 8 4 14 8 NE 1044,2 10 0 0,0
21.01.2020 02:00:00 -4,7 -6,0 -8,3 0,1 1,4 4,4 5 3 11 6 N 1044,6 8 0 0,0
21.01.2020 01:00:00 -4,0 -5,7 -6,6 0,2 1,4 4,4 8 4 18 10 NE 1044,4 10 0 0,0
21.01.2020 00:00:00 -3,5 -5,3 -5,3 0,2 1,4 4,4 11 6 16 9 NE 1044,3 13 0 0,0
20.01.2020 23:00:00 -2,8 -5,0 -5,0 0,3 1,4 4,4 8 4 25 13 ENE 1043,9 14 0 0,0
20.01.2020 22:00:00 -2,3 -4,6 -4,1 0,3 1,4 4,4 10 5 22 12 ENE 1043,6 18 0 0,0
20.01.2020 21:00:00 -1,6 -4,6 -2,8 0,3 1,4 4,4 14 8 34 18 ENE 1043,6 25 0 0,0
20.01.2020 20:00:00 -1,0 -4,5 -2,2 0,4 1,4 4,4 19 11 34 19 ENE 1043,6 27 0 0,0
20.01.2020 19:00:00 -0,8 -4,4 -1,3 0,4 1,4 4,4 19 10 35 19 ENE 1043,9 27 0 0,0
20.01.2020 18:00:00 -0,6 -4,5 -1,0 0,4 1,4 4,4 22 12 39 21 ENE 1043,8 30 0 0,0
20.01.2020 17:00:00 -0,3 -3,9 -0,5 0,3 1,5 4,4 16 8 35 19 ENE 1043,7 30 1 0,0
20.01.2020 16:00:00 -0,1 -4,0 -0,3 0,3 1,5 4,4 23 13 41 22 ENE 1043,6 36 16 0,0
20.01.2020 15:00:00 0,2 -3,2 0,9 0,4 1,5 4,4 20 11 35 19 NE 1043,7 28 48 0,0
20.01.2020 14:00:00 -0,4 -3,3 -0,6 0,4 1,5 4,4 16 9 35 19 NE 1044,3 25 42 0,0
20.01.2020 13:00:00 -0,3 -3,2 0,9 0,4 1,5 4,4 15 8 24 13 NE 1044,8 25 48 0,0
20.01.2020 12:00:00 -1,7 -4,3 -1,1 0,3 1,5 4,4 16 8 29 15 ENE 1046,0 18 5 0,0
20.01.2020 11:00:00 -2,4 -4,6 -2,2 0,3 1,5 4,4 16 9 30 16 ENE 1046,8 15 0 0,0
20.01.2020 10:00:00 -2,5 -4,8 -2,6 0,3 1,5 4,4 14 7 25 13 ENE 1046,7 17 0 0,0
20.01.2020 09:00:00 -3,4 -4,7 -3,1 0,4 1,6 4,4 11 6 16 9 ENE 1046,9 8 4 0,0
20.01.2020 08:00:00 -3,8 -4,5 -3,8 0,4 1,6 4,4 13 7 22 12 ENE 1046,3 4,0 0 0,0
20.01.2020 07:00:00 -4,5 -5,8 -6,1 0,4 1,6 4,4 11 6 18 10 NE 1045,9 7 0 0,0
20.01.2020 06:00:00 -4,3 -5,5 -6,3 0,5 1,6 4,4 10 5 13 7 NE 1045,1 9 0 0,0
20.01.2020 05:00:00 -3,8 -5,6 -6,5 0,5 1,6 4,4 9 5 14 8 NE 1044,8 12 0 0,0
20.01.2020 04:00:00 -2,2 -3,4 -2,6 0,5 1,6 4,4 8 4 13 7 ENE 1044,3 5 0 0,0
20.01.2020 03:00:00 -2,5 -3,6 -3,3 0,5 1,6 4,4 9 5 15 8 NE 1044,9 6 0 0,0
20.01.2020 02:00:00 -2,8 -3,9 -3,0 0,5 1,7 4,4 4 2 9 5 NE 1044,6 2,7 0 0,0
20.01.2020 01:00:00 -4,4 -5,2 -5,5 0,6 1,7 4,4 0 0 8 5 N 1044,9 7 0 0,0
20.01.2020 00:00:00 -3,7 -4,7 -6,1 0,6 1,7 4,4 4 2 9 5 NE 1044,5 6 0 0,0
19.01.2020 23:00:00 -3,3 -4,6 -6,3 0,6 1,7 4,4 3 2 14 8 E 1043,8 8 0 0,0
19.01.2020 22:00:00 -2,8 -3,8 -4,8 0,6 1,7 4,4 4 2 11 6 ENE 1043,4 7 0 0,0
19.01.2020 21:00:00 -1,8 -2,9 -3,2 0,6 1,8 4,4 7 4 13 7 NE 1042,1 11 0 0,0
19.01.2020 20:00:00 -1,2 -2,8 -2,8 0,7 1,8 4,4 6 4 14 7 NE 1041,1 16 0 0,0
19.01.2020 19:00:00 -0,9 -2,5 -1,2 0,7 1,8 4,4 5 3 13 7 N 1040,5 22 0 0,0
19.01.2020 18:00:00 -1,0 -2,7 -1,9 0,8 1,8 4,4 3 2 14 8 N 1039,4 30 0 0,0
19.01.2020 17:00:00 -0,7 -2,9 -1,4 1,1 1,8 4,4 7 4 16 8 NE 1038,6 31 6 0,0
19.01.2020 16:00:00 0,3 -2,7 0,8 1,5 1,8 4,4 9 5 16 9 NNE 1037,5 23 0 0,0
19.01.2020 15:00:00 0,9 -3,0 1,6 1,4 1,8 4,4 7 4 16 8 WNW 1036,6 30 26 0,0
19.01.2020 14:00:00 0,0 -2,5 0,0 1,1 1,8 4,4 13 7 17 9 NW 1036,4 26 35 0,0
19.01.2020 13:00:00 1,0 -3,2 2,2 0,7 1,8 4,4 6 4 10 5 ENE 1036,0 38 18 0,0
19.01.2020 12:00:00 0,0 -3,0 0,0 0,7 1,8 4,4 7 4 9 5 NE 1036,3 27 0 0,0
19.01.2020 11:00:00 -0,9 -1,7 -0,7 0,7 1,9 4,4 3 2 6 3 NW 1036,1 9 0 0,0
19.01.2020 10:00:00 -1,5 -2,4 -0,8 0,7 1,9 4,4 2 1 6 4 NNE 1035,4 11 15 0,0
19.01.2020 09:00:00 -3,2 -3,9 -5,3 0,7 1,9 4,4 2 1 6 4 E 1035,2 12 0 0,0
19.01.2020 08:00:00 -3,7 -4,5 -3,8 0,7 1,9 4,4 2 1 5 3 S 1034,6 10 0 0,0
19.01.2020 07:00:00 -3,7 -4,0 -4,9 0,7 2,0 4,4 4 2 5 3 E 1034,1 0,1 0 0,0
19.01.2020 06:00:00 -2,6 -3,0 -4,8 0,7 2,0 4,4 2 1 4 2 SE 1033,2 0,2 0 0,0
19.01.2020 05:00:00 -2,1 -2,8 -3,7 0,8 2,0 4,4 2 1 4 2 ESE 1032,6 8 0 0,0
19.01.2020 04:00:00 -1,5 -2,0 -2,3 0,8 2,1 4,4 4 2 4 2 E 1032,0 7 0 0,0
19.01.2020 03:00:00 -1,1 -1,7 -2,5 0,8 2,1 4,4 2 1 4 2 WSW 1031,5 8 0 0,0
19.01.2020 02:00:00 -0,9 -1,4 -1,9 0,9 2,2 4,4 0 0 5 3 N 1031,1 8 0 0,0
19.01.2020 01:00:00 -0,6 -1,2 -1,5 0,9 2,2 4,4 0 0 3 1 N 1030,7 11 0 0,0
19.01.2020 00:00:00 -0,4 -1,1 -1,8 0,9 2,3 4,4 0 0 6 3 N 1030,4 19 0 0,0
18.01.2020 23:00:00 -0,2 -1,1 -1,0 1,0 2,4 4,4 4 2 5 3 SSE 1030,3 23 0 0,0
18.01.2020 22:00:00 0,1 -1,3 -1,1 1,1 2,4 4,4 2 1 6 3 ESE 1030,2 36 0 0,0
18.01.2020 21:00:00 0,3 -1,3 -1,1 1,1 2,5 4,4 4 2 10 5 SE 1030,1 39 0 0,0
18.01.2020 20:00:00 0,8 -1,3 -0,5 1,3 2,6 4,4 9 5 16 9 SW 1029,7 64 0 0,0
18.01.2020 19:00:00 -0,2 -1,5 -1,3 1,4 2,7 4,4 14 8 16 9 S 1029,7 35 0 0,0
18.01.2020 18:00:00 -0,1 -1,6 -3,0 1,8 2,8 4,4 7 4 15 8 SSW 1029,5 39 0 0,0
18.01.2020 17:00:00 1,0 -1,1 -0,8 2,7 2,7 4,4 11 6 14 8 SSW 1028,8 49 19 0,0
18.01.2020 16:00:00 2,3 -1,3 1,2 3,6 2,6 4,4 10 6 14 8 SW 1028,3 62 13 0,0
18.01.2020 15:00:00 2,9 -0,9 3,0 4,0 2,5 4,4 11 6 35 19 SW 1028,1 62 20 0,0
18.01.2020 14:00:00 3,5 -0,9 4,7 3,7 2,4 4,4 18 10 29 15 SW 1028,0 71 34 0,0
18.01.2020 13:00:00 3,1 0,3 3,9 3,0 2,3 4,4 17 9 27 15 WSW 1028,7 61 10 0,0
18.01.2020 12:00:00 2,8 1,0 3,0 2,4 2,3 4,4 17 9 26 14 SW 1029,2 40 0 0,0
18.01.2020 11:00:00 2,4 1,2 2,5 1,9 2,3 4,4 11 6 18 10 S 1029,6 40 0 0,0
18.01.2020 10:00:00 2,0 0,9 1,5 1,5 2,3 4,4 13 7 20 11 WSW 1029,4 26 0 0,0
18.01.2020 09:00:00 1,3 0,5 0,6 1,4 2,4 4,4 12 7 19 10 SW 1029,5 25 0 0,0
18.01.2020 08:00:00 0,6 0,0 0,2 1,5 2,5 4,4 10 6 13 7 S 1029,6 43 0 0,1
18.01.2020 07:00:00 0,6 -0,1 -0,1 2,0 2,5 4,4 10 5 29 16 W 1029,3 9 0 2,6
18.01.2020 06:00:00 2,6 1,8 2,1 2,3 2,5 4,4 14 7 27 15 SW 1027,9 14 0 0,4
18.01.2020 05:00:00 2,4 1,6 2,0 2,4 2,5 4,4 15 8 26 14 SW 1027,8 10 0 2,2
18.01.2020 04:00:00 2,9 1,5 2,2 2,6 2,5 4,4 18 10 33 18 WSW 1027,2 15 0 1,1
18.01.2020 03:00:00 3,2 2,2 2,6 2,6 2,4 4,4 16 8 23 13 SW 1026,5 17 0 1,4

tt = temperature
td = dewpoint
tt 5cm = temperature 5cm
tt -5cm = temperature -5cm
tt -20cm = temperature -20cm
tt -100cm = temperature -100cm
ff = wind speed
fx = gusts
dd = wind direction
ppp = reduced air pressure
vv = visibility
sd = sunshine duration
rr = precipitation

Next stations